Flag for Romania Weather past 2 weeks in Timișoara, Romania

Now
37 °F

Clear.


Feels Like: 33 °F
Forecast: 33 / 52 °F
Wind: 6 mph from Northwest

Location: Timisoara Airport

Current Time: Mar 3, 2015 at 7:05:10 AM

Latest Report: Mar 3, 2015 at 6:30 AM


Visibility: 10 mi

Pressure: 30.01 "Hg

Humidity: 100%

Dew point: 37 °F

Location of TimișoaraLocation

Historic Weather in Timișoara — Graph

°F

Timișoara temperature yesterday

Maximum temperature yesterday: 59 °F (at 2:30 PM)
Minimum temperature yesterday: 36 °F (at 6:30 AM)
Average temperature yesterday: 47 °F

Past Weeks' High & Low Weather Summary

 TemperatureHumidityPressure
High59 °F (Feb 24, 2:30 PM)100% (Feb 16, 11:00 PM)30.72 "Hg (Feb 16, 11:00 PM)
Low19 °F (Feb 18, 5:30 AM)17% (Feb 17, 3:30 PM)29.62 "Hg (Feb 24, 3:30 PM)
Average42 °F82%30.05 "Hg
* Reported Feb 16 6:00 AM — Mar 3 6:00 AM, Timișoara, Weather by CustomWeather, © 2015

Note: Actual official high and low records may vary slightly from our data, if they occured in-between our weather recording intervals... More about our weather records

Advertising

Timișoara weather history for previous 24 hours

 ConditionsComfort  
Time TempWeatherWind HumidityBarometerVisibility
6:00 AM
Tue, Mar 3
39 °FClear.8 mph93%30.01 "Hg10 mi
5:30 AM39 °FClear.7 mph93%29.98 "Hg10 mi
5:00 AM41 °FClear.7 mph93%29.95 "Hg10 mi
4:30 AM41 °FClear.7 mph93%29.95 "Hg10 mi
4:00 AM43 °FClear.8 mph93%29.92 "Hg10 mi
3:30 AM43 °FClear.7 mph93%29.92 "Hg10 mi
3:00 AM45 °FClear.6 mph93%29.89 "Hg10 mi
2:30 AM45 °FClear.6 mph93%29.89 "Hg10 mi
2:00 AM45 °FPassing clouds.6 mph100%29.89 "HgN/A
1:30 AM46 °FClear.7 mph93%29.86 "Hg10 mi
1:00 AM46 °FClear.5 mph93%29.83 "Hg10 mi
12:30 AM46 °FClear.6 mph100%29.86 "Hg10 mi
12:00 AM46 °FLight rain. Passing clouds.7 mph100%29.83 "Hg5 mi
11:00 PM
Mon, Mar 2
46 °FLight rain. Passing clouds.3 mph100%29.83 "HgN/A
10:30 PM46 °FRain. Mostly cloudy.5 mph100%29.83 "Hg2 mi
10:00 PM48 °FRain. Fog.3 mph94%29.83 "Hg2 mi
9:30 PM48 °FRain. Fog.2 mph100%29.83 "Hg2 mi
9:00 PM48 °FRain. Fog.5 mph100%29.80 "Hg2 mi
8:30 PM48 °FRain. Fog.5 mph100%29.80 "Hg2 mi
8:00 PM48 °FRain. Fog.7 mph100%29.80 "Hg2 mi
7:30 PM48 °FRain. Fog.6 mph100%29.80 "Hg3 mi
7:00 PM50 °FRain. Fog.8 mph88%29.80 "Hg3 mi
6:30 PM54 °FRain. Passing clouds.7 mph72%29.77 "Hg4 mi
6:00 PM55 °FLight rain. Clear.5 mph59%29.74 "HgN/A
5:30 PM55 °FPassing clouds.7 mph59%29.74 "HgN/A
5:00 PM55 °FSunny.9 mph59%29.77 "Hg10 mi
4:30 PM57 °FSunny.10 mph51%29.77 "Hg10 mi
4:00 PM57 °FSunny.14 mph51%29.77 "Hg10 mi
3:30 PM57 °FSunny.15 mph48%29.80 "Hg10 mi
3:00 PM59 °FSunny.16 mph45%29.80 "Hg10 mi
2:30 PM59 °FPassing clouds.15 mph45%29.80 "HgN/A
2:00 PM57 °FSunny.15 mph51%29.83 "Hg10 mi
1:30 PM57 °FSunny.15 mph51%29.83 "Hg10 mi
1:00 PM57 °FSunny.14 mph55%29.86 "Hg10 mi
12:30 PM57 °FSunny.13 mph55%29.86 "Hg10 mi
12:00 PM55 °FSunny.12 mph55%29.86 "Hg10 mi
11:30 AM54 °FSunny.10 mph67%29.89 "Hg10 mi
11:00 AM50 °FClear.8 mph82%29.89 "Hg5 mi
10:30 AM48 °FClear.8 mph94%29.89 "Hg4 mi
10:00 AM46 °FFog.7 mph100%29.92 "Hg3 mi
9:30 AM45 °FFog.3 mph100%29.92 "Hg1 mi
9:00 AM43 °FSleet. Cloudy.3 mph100%29.92 "Hg1 mi
8:30 AM39 °FFog.5 mph100%29.92 "Hg0 mi
8:00 AM37 °FFog.2 mph100%29.92 "Hg0 mi
7:30 AM36 °FFog.1 mph100%29.92 "Hg0 mi
7:00 AM36 °FFog.5 mph100%29.92 "Hg0 mi
Weather by CustomWeather, © 2015

See weather overviewHow to use our weather pages